This demonstration page uses our WeatherBlox Daily Observations layout. Learn more.

Left ArrowRight Arrow

Hourly Observations for January 19, 2016

Temp ( °F °C ) Dew Point ( °F °C ) Humidity (%) Winds ( mph kmh ) Pressure ( in mb ) Visibility ( mi km ) Precip ( " mm )
12:54 am 00:54 Cloudy 20 -6.7 11 -11.7 68 68 SSE 9 15 30.33 1027 10 16 0.00 0.00
1:54 am 01:54 Cloudy 20 -6.7 12 -11.1 71 71 SE 10 17 30.29 1026 10 16 0.00 0.00
2:54 am 02:54 Cloudy with Light Snow 20 -6.7 14 -10 78 78 SE 12 19 30.30 1026 3 4 0.00 0.03
3:00 am 03:00 Cloudy with Light Snow 19 -7 14 -10 79 79 SE 10 17 30.36 1028 2 3 0.00 0.00
3:13 am 03:13 Cloudy with Light Snow 20 -6.7 15 -9.4 81 81 SE 8 13 30.36 1028 2 3 0.00 0.03
3:22 am 03:22 Cloudy with Light Snow 19 -7 16 -9 86 86 ESE 8 13 30.36 1028 3 5 0.00 0.00
3:54 am 03:54 Cloudy 20 -6.7 15 -9.4 81 81 ESE 9 15 30.29 1026 10 16 0.01 0.25
4:54 am 04:54 Cloudy with Light Snow 20 -6.7 15 -9.4 81 81 ESE 10 17 30.28 1026 5 8 0.00 0.03
5:08 am 05:08 Cloudy with Light Snow 20 -6.7 15 -9.4 81 81 ESE 8 13 30.36 1028 3 4 0.00 0.03
5:22 am 05:22 Cloudy with Light Snow 19 -7 16 -9 86 86 ESE 10 17 30.36 1028 2 3 0.00 0.00
5:37 am 05:37 Cloudy with Light Snow 20 -6.7 15 -9.4 81 81 ESE 9 15 30.36 1028 2 3 0.00 0.03
5:54 am 05:54 Cloudy with Haze 20 -6.7 15 -9.4 81 81 ESE 8 13 30.30 1026 6 10 0.00 0.03
5:56 am 05:56 Cloudy with Light Snow 19 -7 16 -9 86 86 ESE 9 15 30.36 1028 6 10 0.00 0.00
6:24 am 06:24 Cloudy with Light Snow 19 -7 16 -9 86 86 ESE 8 13 30.39 1029 2 3 0.00 0.00
6:40 am 06:40 Cloudy with Light Snow 19 -7 16 -9 86 86 E 7 11 30.39 1029 4 6 0.00 0.00
6:54 am 06:54 Cloudy with Light Snow 20 -6.7 15 -9.4 81 81 ESE 8 13 30.33 1027 3 5 0.01 0.25
7:42 am 07:42 Cloudy with Light Snow 19 -7 16 -9 86 86 E 8 13 30.39 1029 5 8 0.00 0.00
7:54 am 07:54 Cloudy with Light Snow 20 -6.7 15 -9.4 81 81 E 7 11 30.34 1027 4 6 0.01 0.25
8:11 am 08:11 Cloudy with Light Snow 20 -6.7 15 -9.4 81 81 E 9 15 30.39 1029 3 4 0.00 0.03
8:54 am 08:54 Cloudy with Light Snow 19 -7.2 15 -9.4 84 84 ESE 12 19 30.35 1028 3 4 0.00 0.03
9:22 am 09:22 Cloudy with Light Snow 20 -6.7 15 -9.4 81 81 E 10 17 30.39 1029 5 8 0.00 0.03
9:41 am 09:41 Cloudy with Light Snow 20 -6.7 15 -9.4 81 81 ESE 9 15 30.39 1029 3 5 0.00 0.03
9:54 am 09:54 Cloudy with Light Snow 20 -6.7 15 -9.4 81 81 ESE 10 17 30.37 1029 4 6 0.00 0.03
10:54 am 10:54 Cloudy with Light Snow 21 -6.1 15 -9.4 78 78 ESE 16 26 30.37 1029 2 3 0.00 0.03
11:01 am 11:01 Cloudy with Light Snow 21 -6.1 16 -8.9 81 81 ESE 12 19 30.42 1030 1 2 0.01 0.25
11:14 am 11:14 Cloudy with Light Snow 21 -6 18 -8 86 86 ESE 9 15 30.42 1030 2 2 0.00 0.00
11:54 am 11:54 Cloudy with Light Snow 21 -6.1 17 -8.3 85 85 ESE 13 20 30.37 1028 1 2 0.02 0.51
12:22 pm 12:22 Cloudy with Light Snow 21 -6 18 -8 86 86 SE 13 20 30.39 1029 2 2 0.00 0.00
12:33 pm 12:33 Cloudy with Light Snow 21 -6.1 16 -8.9 81 81 SE 10 17 30.39 1029 3 4 0.01 0.25
12:42 pm 12:42 Cloudy with Light Snow 21 -6 16 -9 80 80 SE 10 17 30.39 1029 4 6 0.00 0.00
12:54 pm 12:54 Cloudy with Light Snow 22 -5.6 17 -8.3 82 82 SE 10 17 30.35 1028 3 4 0.01 0.25
1:02 pm 13:02 Cloudy with Light Snow 21 -6 18 -8 86 86 ESE 8 13 30.39 1029 1 2 0.00 0.00
1:31 pm 13:31 Cloudy with Light Snow 22 -5.6 17 -8.3 82 82 SE 9 15 30.39 1029 1 1 0.01 0.25
1:38 pm 13:38 Cloudy with Light Snow 22 -5.6 18 -7.8 85 85 SE 9 15 30.39 1029 1 2 0.01 0.25
1:54 pm 13:54 Cloudy with Light Snow 22 -5.6 18 -7.8 85 85 ESE 8 13 30.32 1027 1 2 0.02 0.51
2:23 pm 14:23 Cloudy with Light Snow 23 -5 18 -7.8 81 81 SE 5 7 30.33 1027 2 3 0.00 0.03
2:34 pm 14:34 Cloudy with Light Snow 23 -5 18 -8 80 80 E 5 7 30.33 1027 3 5 0.00 0.00
2:54 pm 14:54 Mostly Cloudy 23 -5 18 -7.8 81 81 ESE 3 6 30.30 1026 10 16 0.00 0.03
3:54 pm 15:54 Cloudy 24 -4.4 18 -7.8 77 77 E 6 9 30.30 1026 10 16 0.00 0.00
4:47 pm 16:47 Cloudy 23 -5 17 -8.3 78 78 E 6 9 30.33 1027 10 16 0.00 0.00
4:54 pm 16:54 Cloudy 23 -5 17 -8.3 78 78 SE 8 13 30.31 1026 10 16 0.00 0.00
5:13 pm 17:13 Cloudy 22 -5.6 17 -8.3 82 82 ESE 7 11 30.39 1029 10 16 0.00 0.00
5:54 pm 17:54 Cloudy 22 -5.6 17 -8.3 82 82 ESE 6 9 30.32 1027 10 16 0.00 0.00
6:31 pm 18:31 Cloudy 21 -6 18 -8 86 86 SE 6 9 30.39 1029 10 16 0.00 0.00
6:54 pm 18:54 Cloudy 22 -5.6 17 -8.3 82 82 SSE 6 9 30.33 1027 10 16 0.00 0.00
7:54 pm 19:54 Cloudy 22 -5.6 17 -8.3 82 82 SSE 6 9 30.32 1027 10 16 0.00 0.00
8:09 pm 20:09 Cloudy 22 -5.6 17 -8.3 82 82 SSE 7 11 30.39 1029 10 16 0.00 0.00
8:54 pm 20:54 Cloudy 21 -6.1 17 -8.3 85 85 S 5 7 30.32 1027 10 16 0.00 0.00
9:54 pm 21:54 Cloudy 21 -6.1 17 -8.3 85 85 SSE 6 9 30.31 1026 10 16 0.00 0.00
10:54 pm 22:54 Cloudy 21 -6.1 17 -8.3 85 85 SSE 7 11 30.30 1026 10 16 0.00 0.00
11:44 pm 23:44 Cloudy 21 -6 18 -8 86 86 SSE 7 11 30.36 1028 9 14 0.00 0.00
11:54 pm 23:54 Cloudy 21 -6.1 17 -8.3 85 85 SSE 7 11 30.29 1026 9 14 0.00 0.00

Powered by AerisWeather